Regional Weather Roundup
Issued by NWS

Home | Current Version | Previous Version | Graphics & Text | Print | Product List | Glossary On
Versions: 1 2 3 4 5 6 7 8 9 10 11 12 13 14 15 16 17 18 19 20 21 22 23 24 25 26 27 28 29 30 31 32 33 34 35 36 37 38 39 40 41 42 43 44 45 46 47 48 49 50
000
ASUS43 KTOP 011808
RWRKS

WEATHER ROUNDUP FOR KANSAS
NATIONAL WEATHER SERVICE GOODLAND KS
1200 PM CST SUN MAR 01 2015

NOTE:  "FAIR" INDICATES FEW OR NO CLOUDS BELOW 12,000 FEET WITH NO
SIGNIFICANT WEATHER AND/OR OBSTRUCTIONS TO VISIBILITY.

KSZ001>006-013>018-027>032-041>047-011900-
NORTHWEST KANSAS

CITY           SKY/WX    TMP DP  RH WIND       PRES   REMARKS
GOODLAND       PTSUNNY   27  17  66 N12       30.28R WCI  17
6HR MIN TEMP:  20; 6HR MAX TEMP:  28;

HAYS           CLOUDY    28  14  54 N7        30.37S
HILL CITY      PTSUNNY   29  18  63 N7        30.37R
6HR MIN TEMP:   9; 6HR MAX TEMP:  30;

RUSSELL        MOSUNNY   29  22  75 N8        30.36F
6HR MIN TEMP:  16; 6HR MAX TEMP:  30; 6HR PCP: TRACE;

$$

KSZ061>065-074>080-084>089-011900-
SOUTHWEST KANSAS

CITY           SKY/WX    TMP DP  RH WIND       PRES   REMARKS
DODGE CITY     CLOUDY    27  20  75 NE5       30.34S
6HR MIN TEMP:  20; 6HR MAX TEMP:  27;

ELKHART          N/A     26  20  78 N7          N/A
GARDEN CITY    CLOUDY    24  19  81 N7        30.33R
6HR MIN TEMP:  19; 6HR MAX TEMP:  24;

GREAT BEND     MOSUNNY   28  19  69 N5        30.37F
LIBERAL        CLOUDY    27  19  74 NE7       30.34R
PRATT          PTSUNNY   30  19  64 NE3       30.37F
$$

KSZ066>073-081>083-090>101-011900-
SOUTHEAST KANSAS

CITY           SKY/WX    TMP DP  RH WIND       PRES   REMARKS
CHANUTE        PTSUNNY   30  22  72 VRB3      30.41F
6HR MIN TEMP:  23; 6HR MAX TEMP:  30; 6HR PCP: TRACE;

COFFEYVILLE    CLOUDY    30  23  75 N5        30.43S
6HR MIN TEMP:  25; 6HR MAX TEMP:  31; 6HR PCP: TRACE;

HUTCHINSON     PTSUNNY   29  19  66 VRB3      30.39F
6HR MIN TEMP:  17; 6HR MAX TEMP:  29;

MEDICINE LODGE   N/A     31  21  66 N6        30.39S
NEWTON         CLOUDY    27  16  63 N6        30.41S
PARSONS        CLOUDY    31  23  72 NW6       30.43S
6HR MIN TEMP:  25; 6HR MAX TEMP:  32;

WICHITA INTL   PTSUNNY   28  20  71 NW9       30.40S
6HR MIN TEMP:  23; 6HR MAX TEMP:  27; 6HR PCP:  0.06;

WICHITA JABRA  PTSUNNY   27  20  75 N8        30.39F
6HR MIN TEMP:  21; 6HR MAX TEMP:  27; 6HR PCP: TRACE;

WICHITA MCCONL CLOUDY    27  20  75 NW6       30.39S
WINFIELD       MOSUNNY   30  23  75 NW5       30.41S
6HR MIN TEMP:  23; 6HR MAX TEMP:  30; 6HR PCP:  0.01;

$$

KSZ007>012-019>026-033>040-048>060-102>105-011900-
NORTHEAST KANSAS

CITY           SKY/WX    TMP DP  RH WIND       PRES   REMARKS
CONCORDIA      MOSUNNY   30  20  66 VRB5      30.39S
6HR MIN TEMP:  15; 6HR MAX TEMP:  30;

EMPORIA        PTSUNNY   27  20  75 NW3       30.40S
6HR MIN TEMP:  21; 6HR MAX TEMP:  27; 6HR PCP:  0.04;

LAWRENCE       CLOUDY    30  21  69 W6        30.42S
6HR MIN TEMP:  21; 6HR MAX TEMP:  31;

MANHATTAN      PTSUNNY   31  20  63 NW8       30.43R
6HR MIN TEMP:  15; 6HR MAX TEMP:  31;

MARYSVILLE     PTSUNNY   28  21  74 W5        30.40S
OLATHE IND     PTSUNNY   28  20  71 N5        30.41S
6HR MIN TEMP:  21; 6HR MAX TEMP:  28;

OLATHE EXE     PTSUNNY   28  20  71 NW6       30.39F
6HR MIN TEMP:  22; 6HR MAX TEMP:  29;

SALINA         MOSUNNY   31  20  63 NW8       30.42S
6HR MIN TEMP:  14; 6HR MAX TEMP:  31;

TOPEKA BILLARD PTSUNNY   30  20  66 SW3       30.42F
6HR MIN TEMP:  19; 6HR MAX TEMP:  31;

TOPEKA FORBES  MOSUNNY   31  20  63 N6        30.41S
6HR MIN TEMP:  22; 6HR MAX TEMP:  32;

$$



USA.gov is the U.S. government's official web portal to all federal, state and local government web resources and services.